{"data":{"norad_id":63353,"epoch":"2026-09-19T17:13:42.988224Z","epoch_age_seconds":82225,"freshness":"FRESH","line1":"1 63353U 25061C   26262.71785866  .00002333  00000+0  12967-3 0  9998","line2":"2 63353  97.5807 238.2534 0017380 293.2219  66.7182 15.14595859 81913","mean_motion":15.14595859,"eccentricity":0.001738,"inclination_deg":97.5807,"raan_deg":238.2534,"arg_perigee_deg":293.2219,"mean_anomaly_deg":66.7182,"bstar":0.00012967,"rev_number":8191,"period_min":95.07486709694,"perigee_km":510.21297461124,"apogee_km":534.19856608097,"semimajor_km":6900.3427703461,"source":"CELESTRAK","updated_at":"2026-09-20T09:00:34.875942Z"}}